Lapse_Rate
3.9 4.0 3.8 3.2 2.9 2.8 3.1 3.7 4.2 4.3 3.9 3.3 2.7 2.6 3.1 3.3 2.8 2.2 1.8 1.4 1.3 1.3 1.2 1.2 1.6 2.2 3.6 4.5 4.8 5.2 4.6 5.2
3.8 3.9 4.2 3.6 2.9 2.6 2.7 3.1 3.4 3.4 3.3 2.8 2.4 2.9 3.4 3.3 2.4 1.9 1.5 1.4 1.4 1.4 1.1 1.3 1.8 2.6 4.1 4.4 5.3 4.9 4.7 5.1
4.4 3.7 3.6 3.5 3.3 3.3 3.1 3.1 3.5 3.4 3.4 2.7 2.6 2.6 2.8 2.8 1.5 1.6 1.5 1.4 1.4 1.3 1.3 1.6 2.5 4.4 5.2 4.8 4.4 4.2 4.3 4.5
4.3 3.9 3.6 3.6 4.3 4.1 4.5 4.7 5.0 4.9 3.9 2.6 2.1 2.1 2.0 2.3 1.7 1.6 1.4 1.6 1.6 1.5 1.7 2.0 3.2 4.8 5.4 4.4 3.4 3.2 3.1 4.1
5.1 4.5 4.2 4.3 4.3 4.0 4.3 4.1 4.4 4.0 3.9 2.5 2.4 2.6 2.8 1.2 1.0 1.2 1.0 1.5 1.1 1.6 2.0 2.2 3.3 4.8 5.4 3.8 3.2 2.7 2.5 3.3
5.4 5.2 4.7 4.7 4.1 3.9 3.8 3.7 4.3 4.5 3.9 3.6 2.4 2.2 1.1 0.0 -0.9 -1.1 -0.4 -0.0 -0.2 0.5 1.0 2.2 2.9 4.7 5.7 3.8 2.9 2.0 1.5 1.9
4.9 5.0 4.8 4.3 4.0 3.8 3.3 3.2 3.6 4.1 4.0 4.2 3.2 2.2 0.9 0.1 -0.4 -0.6 -0.5 -0.0 -0.1 -0.3 0.7 1.6 3.0 4.5 4.5 3.1 2.0 1.6 0.8 1.0
5.0 4.6 4.7 4.3 3.9 3.9 3.2 3.2 3.7 4.2 4.4 3.7 3.6 3.2 1.6 0.7 0.3 0.0 -0.0 0.6 0.9 1.2 0.9 1.0 1.7 3.3 3.6 3.1 1.9 1.8 1.2 1.1
4.5 4.7 4.8 4.4 5.0 4.2 3.3 3.8 4.2 4.1 4.4 4.0 4.0 3.8 2.5 2.0 1.3 1.5 1.3 2.0 1.6 2.1 2.4 2.0 0.8 2.9 2.6 3.1 2.4 2.2 2.0 1.2
1.8 3.4 4.7 4.8 5.2 4.8 4.1 4.6 4.6 4.6 4.1 4.2 4.4 4.1 3.7 2.7 2.3 2.2 1.8 2.3 3.0 2.6 1.7 1.2 0.5 0.9 1.3 2.9 3.3 3.0 2.5 1.8
1.5 1.9 2.2 4.4 5.4 5.3 4.8 5.1 5.9 5.6 4.6 4.4 4.4 3.7 4.8 3.8 2.9 2.0 2.4 2.7 3.0 3.0 2.0 2.0 2.3 1.4 2.1 2.5 2.9 3.0 3.9 3.8
1.4 0.9 1.8 3.2 4.7 5.1 5.3 5.8 6.5 6.6 4.8 4.8 4.3 4.0 4.5 3.9 3.4 2.3 3.5 3.0 2.7 2.2 2.5 2.0 2.2 2.8 5.5 3.9 3.1 3.2 4.2 3.7
2.1 1.8 3.0 4.7 5.1 4.7 5.3 5.7 6.4 6.9 6.1 5.1 4.6 4.5 4.4 3.9 4.0 2.8 3.6 3.6 3.5 2.9 3.0 3.3 2.5 2.8 2.6 3.2 3.2 3.8 3.9 3.3
1.9 2.1 2.4 4.5 4.6 5.1 5.5 6.2 6.8 6.9 6.3 5.3 4.9 4.3 4.7 3.7 3.4 3.5 4.0 2.8 2.2 2.6 2.7 2.7 2.1 4.5 3.7 3.2 4.5 5.1 4.0 4.6
1.5 0.9 2.7 3.5 4.8 5.7 5.4 6.0 6.1 6.6 6.7 5.3 4.7 4.5 3.5 4.4 3.1 3.7 3.5 3.4 3.4 3.1 3.8 4.3 4.0 2.6 3.8 0.5 4.0 3.6 3.5 4.2
0.6 0.2 0.9 2.3 4.1 5.5 4.7 4.9 5.6 6.6 6.3 5.8 4.8 4.3 3.6 4.4 2.7 3.6 3.4 3.3 3.5 3.1 3.9 4.1 2.7 2.9 4.4 1.1 0.2 -0.8 2.7 4.6
0.9 0.5 0.6 1.0 1.8 3.5 4.1 5.3 5.4 6.2 7.2 6.1 4.9 4.2 4.3 4.3 2.7 3.2 3.5 2.6 3.0 3.0 2.9 3.1 3.0 2.0 2.6 0.5 0.4 0.5 -0.4 1.1
1.1 1.3 1.6 2.6 2.6 3.7 3.9 4.6 5.5 6.1 6.8 5.9 5.1 4.2 4.2 4.3 2.8 3.0 2.8 2.7 2.5 2.6 2.7 2.8 2.6 3.1 -0.0 0.6 0.4 0.9 0.8 0.2
0.9 1.9 2.3 3.6 3.4 4.2 4.7 4.8 5.3 5.8 5.9 6.2 5.0 4.5 4.2 3.9 3.0 2.8 2.9 2.9 3.0 3.2 3.3 2.6 2.8 2.0 1.7 1.4 0.9 1.6 0.9 0.8
0.4 3.1 4.4 4.5 5.1 4.9 5.2 5.7 5.8 6.5 6.5 6.5 5.1 4.5 3.3 2.9 2.6 3.2 3.5 2.7 3.2 2.9 3.0 2.4 2.7 2.4 1.1 1.5 1.8 2.4 2.2 1.8
Wind_Speed
12 16 20 24 26 25 26 25 25 25 25 26 25 24 21 20 21 20 19 19 17 16 14 12 9 7 10 15 20 24 22 19
12 11 15 16 21 26 27 27 27 26 25 25 25 23 20 21 22 21 20 19 17 16 14 11 8 7 9 16 23 24 22 19
12 10 10 12 15 22 26 28 27 26 24 25 24 17 18 20 19 21 21 20 18 16 15 12 11 9 11 20 22 18 19 17
12 12 12 13 14 18 16 21 20 20 20 21 18 17 16 16 19 20 21 19 17 15 15 12 11 10 12 21 18 19 18 16
13 12 12 13 10 12 11 13 15 17 20 20 19 16 15 14 15 16 17 17 15 14 11 10 6 4 10 17 18 19 18 17
16 16 13 13 11 9 10 7 13 11 16 21 14 10 13 12 11 14 14 16 13 14 11 10 6 8 20 18 18 18 17 16
18 17 16 14 14 10 9 10 9 16 18 19 14 11 9 13 12 13 13 16 13 11 10 10 10 15 20 20 18 19 19 16
19 20 19 16 14 14 11 9 14 16 17 21 18 18 14 11 10 11 13 16 15 14 11 8 6 13 14 20 18 17 19 18
22 20 20 19 19 14 11 9 14 11 14 22 21 21 18 14 8 9 14 17 19 15 12 11 6 8 7 16 17 17 17 17
26 20 21 19 18 14 11 12 10 11 16 20 22 22 23 15 10 10 16 15 16 8 8 6 5 5 5 6 10 15 17 16
25 25 25 22 18 14 13 14 11 11 16 18 18 19 21 16 10 11 19 11 9 9 7 9 8 5 5 5 5 8 13 14
27 24 26 24 15 13 11 10 10 9 11 12 19 17 20 15 10 9 15 9 9 8 11 6 8 7 9 6 5 6 12 11
27 26 24 18 15 13 13 13 11 10 11 17 21 16 19 13 10 10 10 12 14 12 9 13 5 7 5 5 4 4 6 4
26 25 25 23 17 16 13 12 12 10 10 14 19 18 18 10 12 12 14 10 11 11 11 7 4 11 8 6 4 2 4 3
26 27 26 23 21 14 10 9 8 9 10 12 15 17 16 14 10 12 13 12 12 14 14 16 12 5 17 5 3 4 4 2
28 28 28 24 23 19 21 17 13 11 13 10 13 15 16 15 12 12 13 10 13 12 12 13 15 13 12 1 3 6 4 3
25 27 27 27 25 23 18 19 13 11 10 13 15 14 16 13 12 14 12 10 12 14 13 14 14 12 12 3 3 2 4 4
22 25 25 24 24 24 25 23 19 15 14 11 12 12 12 15 14 13 11 10 12 12 13 16 14 12 5 5 5 5 5 4
21 25 23 23 24 22 22 21 20 21 18 14 16 13 11 15 14 13 11 11 12 12 12 11 13 12 11 9 4 4 5 3
22 23 22 21 21 20 18 19 13 13 16 12 13 13 14 16 13 12 11 9 10 10 9 10 12 11 11 9 5 4 4 7
Wind_Direction
150 163 162 154 149 146 143 140 137 134 133 130 130 133 143 142 136 133 136 134 129 129 125 117 114 112 99 72 68 102 97 93
152 160 160 159 151 144 141 140 138 137 135 135 133 138 146 142 138 143 142 138 136 133 126 123 126 121 96 62 95 97 98 96
160 155 150 150 151 147 142 140 139 138 139 136 131 144 146 143 142 146 145 143 142 141 136 139 137 130 87 71 91 94 93 90
168 161 158 149 154 152 151 145 143 145 146 142 141 145 144 146 146 149 146 147 147 146 148 153 145 138 101 103 98 91 82 84
174 166 164 160 158 151 152 147 150 150 149 147 149 152 147 141 145 148 147 150 149 153 155 161 169 142 128 114 110 95 88 84
174 173 168 168 167 164 159 155 157 157 159 156 156 157 145 147 144 148 149 158 159 160 163 177 227 185 120 123 112 107 99 90
173 171 170 175 176 170 167 168 167 163 163 170 165 158 155 154 155 156 165 173 171 167 177 165 134 101 104 120 113 111 105 97
173 175 175 177 177 177 175 173 172 168 168 175 181 168 161 164 165 168 174 182 174 174 159 136 123 113 110 120 124 121 115 112
180 180 179 180 182 177 178 180 177 175 172 178 183 173 166 165 168 175 179 185 166 161 136 128 117 119 114 127 128 128 127 124
176 178 181 184 185 180 181 185 179 180 174 181 188 176 167 166 171 180 177 168 160 150 141 137 124 121 118 117 131 129 132 131
178 179 179 180 186 181 186 192 185 181 177 180 187 172 174 170 171 176 165 158 159 151 147 147 142 129 121 109 110 116 133 143
182 181 181 176 176 177 186 194 195 181 179 182 178 172 173 164 169 164 162 157 155 148 151 142 146 143 129 116 105 110 123 129
184 180 182 176 174 176 184 193 192 184 179 177 181 179 177 168 172 162 166 167 167 156 147 147 140 134 112 83 50 94 130 125
179 182 179 184 182 180 181 189 194 183 172 178 181 177 182 173 172 172 173 163 162 161 156 147 129 159 146 119 125 38 36 111
180 179 179 184 182 174 158 174 190 181 183 177 183 178 178 181 175 174 174 175 178 176 167 167 160 175 159 138 142 187 131 282
180 178 176 180 179 178 173 175 183 195 191 180 181 179 178 177 173 179 178 179 182 182 173 172 163 168 179 189 138 145 159 162
180 178 177 177 177 180 180 181 181 184 188 171 180 181 181 176 170 183 179 182 183 179 174 172 176 171 185 146 123 106 125 141
175 177 180 180 179 179 181 180 177 180 185 173 178 180 181 181 170 181 174 177 181 183 180 176 177 179 174 159 163 158 163 149
172 173 176 177 180 180 182 183 183 186 182 180 176 178 184 186 175 178 179 179 183 184 183 182 180 183 176 181 152 167 152 129
167 171 170 173 176 178 182 185 187 189 191 186 182 181 181 175 170 173 179 170 177 184 187 185 183 181 174 170 170 178 157 148